EW5808 Cabra ES current weather conditions

sailwx.info

Wind from 248

Air temperature 22.8° C
Dewpoint 18.1° C

Last reported at 2018-Sep-19 00:08 UTC.
Time now 2018-Sep-19 00:56 UTC

Location: N 37°28' W 004°27'.
View on Google Maps.

See reports from other nearby stations

  
Tides and Currents Weather Stations Pressure Air Temp Water Temp Dewpoint Dewpoint Depression Visibility Wind Speed Wind Dir Waves Ship Positions
date/time (UTC)wind fromknots sea level pressurealtimeterstation pressurevisibilityair tempwater tempwave heightnotes
2018-Sep-19 00:08 248 22.8
2018-Sep-19 00:03 248 22.8
2018-Sep-18 23:58 248 0 gusting 2 22.8
2018-Sep-18 23:53 248 22.8
2018-Sep-18 23:48 248 22.8
2018-Sep-18 23:43 248 23.3
2018-Sep-18 23:38 248 23.3
2018-Sep-18 23:33 248 0 gusting 2 23.3
2018-Sep-18 23:28 248 23.3
2018-Sep-18 23:23 248 23.3
2018-Sep-18 23:18 248 23.3
2018-Sep-18 23:13 248 23.3
2018-Sep-18 23:08 248 23.3
2018-Sep-18 23:03 248 23.3
2018-Sep-18 21:48 167 24.4
2018-Sep-18 21:43 167 25.0
2018-Sep-18 21:38 167 0 gusting 2 25.0
2018-Sep-18 21:33 167 0 gusting 2 25.0
2018-Sep-18 21:28 167 0 gusting 2 25.0
2018-Sep-18 21:23 167 25.0
2018-Sep-18 21:18 167 25.0
2018-Sep-18 21:13 167 25.6
2018-Sep-18 21:08 167 25.6
2018-Sep-18 21:03 167 25.6
2018-Sep-18 20:58 360 0 gusting 1 25.6
2018-Sep-18 20:53 360 0 gusting 2 25.6
2018-Sep-18 20:48 167 1 gusting 2 25.6
2018-Sep-18 20:43 196 1 gusting 2 26.1
2018-Sep-18 20:38 197 0 gusting 3 26.1
2018-Sep-18 20:33 198 1 gusting 3 26.1
2018-Sep-18 20:28 204 1 gusting 2 26.1
2018-Sep-18 20:00 220 0 gusting 3 26.7
2018-Sep-18 19:58 220 0 gusting 3 26.7
2018-Sep-18 19:48 223 27.2
2018-Sep-18 19:43 223 27.2
2018-Sep-18 19:38 223 27.2
2018-Sep-18 19:33 223 27.2
2018-Sep-18 19:28 223 27.2
2018-Sep-18 19:23 224 27.2
2018-Sep-18 19:08 137 3 gusting 6 27.8
2018-Sep-18 18:44 302 28.3
2018-Sep-18 18:34 302 28.9
2018-Sep-18 18:08 302 0 gusting 1 29.4
2018-Sep-18 18:03 302 0 gusting 3 29.4
2018-Sep-18 17:58 302 1 gusting 3 29.4
2018-Sep-18 17:53 304 29.4
2018-Sep-18 17:48 296 0 gusting 4 29.4
2018-Sep-18 17:43 303 1 gusting 4 30.0
2018-Sep-18 17:38 293 1 gusting 3 30.0
2018-Sep-18 17:29 306 2 gusting 4 30.0
2018-Sep-18 17:23 304 1 gusting 5 30.0
2018-Sep-18 17:18 317 2 gusting 6 30.0
2018-Sep-18 17:13 307 0 gusting 5 30.6
2018-Sep-18 17:08 292 2 gusting 5 30.6
2018-Sep-18 17:03 314 1 gusting 4 30.6
2018-Sep-18 16:58 355 1 gusting 4 30.6
2018-Sep-18 16:53 023 1 gusting 6 31.1
2018-Sep-18 16:48 294 2 gusting 6 31.1
2018-Sep-18 16:43 301 2 gusting 6 31.1
2018-Sep-18 16:38 304 2 gusting 6 31.1
2018-Sep-18 16:33 300 1 gusting 7 31.1
2018-Sep-18 16:28 009 1 gusting 6 31.1
2018-Sep-18 16:23 310 1 gusting 7 31.7
2018-Sep-18 16:18 286 2 gusting 9 31.7
2018-Sep-18 16:13 323 1 gusting 6 31.7
2018-Sep-18 16:08 292 0 gusting 4 31.7
2018-Sep-18 16:03 292 1 gusting 7 31.7
2018-Sep-18 15:58 279 4 gusting 7 31.7
2018-Sep-18 15:53 304 2 gusting 6 31.7
2018-Sep-18 15:48 250 3 gusting 6 31.7
2018-Sep-18 15:43 266 2 gusting 5 32.2
2018-Sep-18 15:38 071 1 gusting 7 31.7
2018-Sep-18 15:33 304 2 gusting 7 32.2
2018-Sep-18 15:28 269 2 gusting 6 32.2
2018-Sep-18 15:23 286 3 gusting 7 32.2
2018-Sep-18 15:18 189 1 gusting 9 32.8
2018-Sep-18 15:13 295 2 gusting 6 32.8
2018-Sep-18 15:08 308 2 gusting 6 32.8
2018-Sep-18 15:03 319 1 gusting 7 32.8
2018-Sep-18 14:58 282 1 gusting 7 32.2
2018-Sep-18 14:53 302 1 gusting 4 32.2
2018-Sep-18 14:48 309 1 gusting 7 32.2
2018-Sep-18 14:43 271 2 gusting 7 32.2
2018-Sep-18 14:38 229 1 gusting 3 32.2
2018-Sep-18 14:33 307 1 gusting 3 32.2
2018-Sep-18 14:28 311 0 gusting 4 31.7
2018-Sep-18 14:23 319 2 gusting 4 31.7
2018-Sep-18 14:18 286 0 gusting 2 31.1
2018-Sep-18 14:13 288 1 gusting 2 31.1
2018-Sep-18 14:08 339 0 gusting 3 31.1
2018-Sep-18 14:03 327 0 gusting 3 31.1
2018-Sep-18 13:58 302 0 gusting 6 31.1
2018-Sep-18 13:53 315 1 gusting 6 31.1
2018-Sep-18 13:48 285 1 gusting 4 31.1
2018-Sep-18 13:43 302 31.1
2018-Sep-18 13:38 302 2 gusting 4 31.1
2018-Sep-18 13:33 290 1 gusting 6 31.1
2018-Sep-18 13:28 282 2 gusting 6 30.6
2018-Sep-18 13:23 301 0 gusting 4 30.6
2018-Sep-18 13:18 240 2 gusting 4 30.6
2018-Sep-18 13:13 297 0 gusting 4 31.1
2018-Sep-18 13:08 279 2 gusting 6 31.1
2018-Sep-18 13:03 252 2 gusting 6 31.1
2018-Sep-18 12:58 294 1 gusting 4 31.1
2018-Sep-18 12:53 225 31.1
2018-Sep-18 12:48 249 2 gusting 6 30.6
2018-Sep-18 12:43 306 2 gusting 4 31.1
2018-Sep-18 12:38 308 0 gusting 6 31.1
2018-Sep-18 12:33 299 2 gusting 6 31.1
2018-Sep-18 12:28 009 0 gusting 4 30.6
2018-Sep-18 12:23 009 1 gusting 4 30.6
2018-Sep-18 12:18 279 0 gusting 5 30.6
2018-Sep-18 12:13 046 2 gusting 5 30.6
2018-Sep-18 12:08 318 2 gusting 5 30.6
2018-Sep-18 12:03 233 0 gusting 3 30.6
2018-Sep-18 11:58 275 0 gusting 3 30.6
2018-Sep-18 11:53 283 1 gusting 3 30.6
2018-Sep-18 11:48 317 1 gusting 4 30.0
2018-Sep-18 11:43 279 1 gusting 4 30.0
2018-Sep-18 11:38 040 0 gusting 4 30.0
2018-Sep-18 11:33 302 0 gusting 4 30.0
2018-Sep-18 11:28 084 1 gusting 3 29.4
2018-Sep-18 11:23 327 0 gusting 3 29.4
2018-Sep-18 11:18 291 0 gusting 3 29.4
2018-Sep-18 11:13 241 0 gusting 3 29.4
2018-Sep-18 11:08 322 0 gusting 4 28.9
2018-Sep-18 11:03 323 0 gusting 4 28.9
2018-Sep-18 10:58 276 1 gusting 5 28.9
2018-Sep-18 10:53 285 1 gusting 3 28.9
2018-Sep-18 10:48 311 0 gusting 3 28.9
2018-Sep-18 10:43 274 0 gusting 3 28.3
2018-Sep-18 10:38 017 1 gusting 4 28.3
2018-Sep-18 10:33 260 1 gusting 2 28.3
2018-Sep-18 10:28 247 0 gusting 2 28.3
2018-Sep-18 10:23 246 0 gusting 3 27.8
2018-Sep-18 10:18 247 0 gusting 3 27.8
2018-Sep-18 10:13 296 27.8
2018-Sep-18 10:08 302 0 gusting 3 27.2
2018-Sep-18 10:03 283 0 gusting 2 27.2
2018-Sep-18 09:58 283 0 gusting 3 26.7
2018-Sep-18 09:53 284 1 gusting 3 26.7
2018-Sep-18 09:48 284 0 gusting 2 26.7
2018-Sep-18 09:43 288 0 gusting 2 26.7
2018-Sep-18 09:38 288 0 gusting 3 26.1
2018-Sep-18 09:33 288 1 gusting 3 26.1
2018-Sep-18 09:28 288 0 gusting 2 26.1
2018-Sep-18 09:23 292 25.6
2018-Sep-18 09:18 292 0 gusting 2 25.6
2018-Sep-18 09:13 292 0 gusting 2 25.6
2018-Sep-18 09:08 292 0 gusting 2 25.0
2018-Sep-18 09:03 292 0 gusting 2 25.0
2018-Sep-18 08:58 298 0 gusting 2 25.0
2018-Sep-18 08:53 301 1 gusting 3 25.0
2018-Sep-18 08:48 300 1 gusting 3 25.0
2018-Sep-18 08:43 296 1 gusting 5 25.0
2018-Sep-18 08:38 303 0 gusting 5 24.4
2018-Sep-18 08:33 311 0 gusting 6 24.4
2018-Sep-18 08:28 300 0 gusting 6 24.4
2018-Sep-18 08:23 296 1 gusting 3 24.4
2018-Sep-18 08:18 299 1 gusting 3 24.4
2018-Sep-18 08:13 152 23.9
2018-Sep-18 08:08 148 23.9
2018-Sep-18 08:03 148 1 gusting 2 23.9
2018-Sep-18 07:58 094 23.3
2018-Sep-18 07:53 094 23.3
2018-Sep-18 07:48 094 22.8
2018-Sep-18 07:43 094 22.2
2018-Sep-18 07:38 094 21.7
2018-Sep-18 07:33 094 21.7
2018-Sep-18 07:28 094 21.1
2018-Sep-18 07:23 094 21.1
2018-Sep-18 07:18 094 20.6
2018-Sep-18 07:13 094 20.6
2018-Sep-18 07:08 094 20.6
2018-Sep-18 07:03 094 20.6
2018-Sep-18 06:58 094 0 gusting 2 20.0
2018-Sep-18 06:53 094 1 gusting 2 20.0
2018-Sep-18 06:48 094 1 gusting 2 20.0
2018-Sep-18 06:43 094 20.0
2018-Sep-18 06:38 094 20.0
2018-Sep-18 06:33 094 20.0
2018-Sep-18 06:28 094 20.0
2018-Sep-18 06:23 094 0 gusting 2 20.0
2018-Sep-18 06:18 094 0 gusting 2 20.0
2018-Sep-18 06:13 094 20.0
2018-Sep-18 06:08 094 0 gusting 1 20.0
2018-Sep-18 06:03 094 20.0
2018-Sep-18 05:58 094 20.0
2018-Sep-18 05:53 094 20.0
2018-Sep-18 05:48 094 0 gusting 2 20.0
2018-Sep-18 05:43 094 0 gusting 2 20.0
2018-Sep-18 05:38 094 20.0
2018-Sep-18 05:33 094 0 gusting 2 20.0
2018-Sep-18 05:28 094 20.0
2018-Sep-18 05:23 094 0 gusting 2 20.0
2018-Sep-18 05:18 096 0 gusting 3 20.0
2018-Sep-18 05:13 096 0 gusting 2 20.0
2018-Sep-18 05:08 098 20.0
2018-Sep-18 05:03 098 0 gusting 1 20.0
2018-Sep-18 04:58 098 0 gusting 2 19.4
2018-Sep-18 04:53 098 0 gusting 2 19.4
2018-Sep-18 04:48 098 0 gusting 2 19.4
2018-Sep-18 04:43 098 1 gusting 2 19.4
2018-Sep-18 04:38 099 0 gusting 2 19.4
2018-Sep-18 04:33 099 0 gusting 2 19.4
2018-Sep-18 04:28 099 19.4
2018-Sep-18 04:23 099 19.4
2018-Sep-18 04:18 098 19.4
2018-Sep-18 04:13 099 19.4
2018-Sep-18 04:08 099 19.4
2018-Sep-18 04:03 099 20.0
2018-Sep-18 03:58 098 20.0
2018-Sep-18 03:53 099 20.0
2018-Sep-18 03:48 099 20.0
2018-Sep-18 03:43 099 20.0
2018-Sep-18 03:38 099 20.0
2018-Sep-18 03:33 099 20.0
2018-Sep-18 03:28 099 20.0
2018-Sep-18 03:23 099 20.0
2018-Sep-18 03:18 099 20.0
2018-Sep-18 03:13 099 20.0
2018-Sep-18 03:08 099 20.0
2018-Sep-18 03:03 099 20.0
2018-Sep-18 02:58 099 20.0
2018-Sep-18 02:53 099 20.0
2018-Sep-18 02:48 099 20.0
2018-Sep-18 02:43 099 20.0
2018-Sep-18 02:38 099 20.0
2018-Sep-18 02:33 099 20.0
2018-Sep-18 02:28 099 20.0
2018-Sep-18 02:23 098 20.6
2018-Sep-18 02:18 098 0 gusting 1 20.6
2018-Sep-18 02:13 099 20.6
2018-Sep-18 02:08 099 20.6
2018-Sep-18 02:03 099 20.6
2018-Sep-18 01:58 099 20.6
2018-Sep-18 01:53 099 20.6
2018-Sep-18 01:48 099 20.6
2018-Sep-18 01:43 099 20.6
2018-Sep-18 01:38 099 20.6
2018-Sep-18 01:33 099 20.6
2018-Sep-18 01:28 099 20.6
2018-Sep-18 01:23 099 20.6
2018-Sep-18 01:18 099 20.6
2018-Sep-18 01:13 099 20.6
2018-Sep-18 01:08 099 21.1
2018-Sep-18 01:03 099 0 gusting 1 21.1
2018-Sep-18 00:58 098 21.1
2018-Sep-18 00:53 098 21.1
2018-Sep-18 00:48 098 21.1
2018-Sep-18 00:43 098 0 gusting 0 21.1
2018-Sep-18 00:38 099 21.1
2018-Sep-18 00:33 098 21.1
2018-Sep-18 00:23 098 21.1
2018-Sep-18 00:18 098 21.1
2018-Sep-18 00:13 099 1 gusting 3 21.1
2018-Sep-18 00:08 100 0 gusting 2 21.1
2018-Sep-18 00:03 172 1 gusting 2 21.1
2018-Sep-17 23:58 245 0 gusting 3 21.1
2018-Sep-17 23:53 248 21.1
2018-Sep-17 23:48 267 1 gusting 4 21.1
2018-Sep-17 23:43 084 21.1
2018-Sep-17 23:38 084 21.1
2018-Sep-17 23:33 084 0 gusting 2 21.1
2018-Sep-17 23:28 084 0 gusting 1 21.1
2018-Sep-17 23:23 084 0 gusting 1 21.1
2018-Sep-17 23:18 084 21.1
2018-Sep-17 23:13 084 21.1
2018-Sep-17 23:08 147 1 gusting 2 21.7
2018-Sep-17 23:03 148 0 gusting 2 21.7
2018-Sep-17 22:58 149 0 gusting 2 21.7
2018-Sep-17 22:53 150 0 gusting 2 21.7
2018-Sep-17 22:48 153 1 gusting 4 21.7
2018-Sep-17 22:43 151 1 gusting 3 22.2
2018-Sep-17 22:38 360 0 gusting 4 22.2
2018-Sep-17 22:33 049 1 gusting 4 22.8
2018-Sep-17 22:28 060 2 gusting 5 22.8
2018-Sep-17 22:23 042 1 gusting 6 22.8
2018-Sep-17 22:18 040 2 gusting 8 22.8
2018-Sep-17 22:13 044 4 gusting 8 22.8
2018-Sep-17 22:08 065 3 gusting 7 23.3
2018-Sep-17 22:03 059 3 gusting 7 23.3
2018-Sep-17 21:58 055 2 gusting 8 23.3
2018-Sep-17 21:53 049 3 gusting 8 23.3
2018-Sep-17 21:48 013 0 gusting 3 23.3
2018-Sep-17 21:43 180 23.3
2018-Sep-17 21:38 180 23.3
2018-Sep-17 21:33 180 0 gusting 1 23.3
2018-Sep-17 21:28 180 0 gusting 2 23.3
2018-Sep-17 21:23 180 0 gusting 2 23.3
2018-Sep-17 21:18 180 1 gusting 2 23.9
2018-Sep-17 21:13 196 1 gusting 2 23.9
2018-Sep-17 21:08 198 23.9
2018-Sep-17 21:03 198 23.9
2018-Sep-17 20:58 198 0 gusting 2 23.9
2018-Sep-17 20:53 198 0 gusting 2 23.9
2018-Sep-17 20:48 199 24.4
2018-Sep-17 20:43 199 24.4
2018-Sep-17 20:38 199 24.4
2018-Sep-17 20:33 199 24.4
2018-Sep-17 20:28 199 0 gusting 2 24.4
2018-Sep-17 20:23 199 0 gusting 2 24.4
2018-Sep-17 20:18 200 0 gusting 2 24.4
2018-Sep-17 20:13 253 24.4
2018-Sep-17 20:08 253 0 gusting 3 25.0
2018-Sep-17 20:03 253 1 gusting 6 25.0
2018-Sep-17 19:58 244 2 gusting 6 25.0
2018-Sep-17 19:53 182 25.0
2018-Sep-17 19:48 182 25.0
2018-Sep-17 19:43 182 25.0
2018-Sep-17 19:38 181 25.0
2018-Sep-17 19:33 182 25.0
2018-Sep-17 19:28 182 0 gusting 2 25.6
2018-Sep-17 19:23 182 1 gusting 2 25.6
2018-Sep-17 19:18 182 0 gusting 2 25.6
2018-Sep-17 19:13 182 25.6
2018-Sep-17 19:08 182 0 gusting 2 25.6
2018-Sep-17 19:03 182 1 gusting 3 26.1
2018-Sep-17 18:58 185 0 gusting 3 26.1
2018-Sep-17 18:53 198 0 gusting 3 26.1
2018-Sep-17 18:48 198 0 gusting 2 26.1
2018-Sep-17 18:43 198 1 gusting 2 26.7
2018-Sep-17 18:38 198 1 gusting 2 26.7
2018-Sep-17 18:33 198 0 gusting 2 26.7
2018-Sep-17 18:28 202 0 gusting 4 26.7
2018-Sep-17 18:23 203 2 gusting 4 27.2
2018-Sep-17 18:18 206 2 gusting 4 27.2
2018-Sep-17 18:15 204 1 gusting 4 27.2
2018-Sep-17 18:10 209 1 gusting 4 27.2
2018-Sep-17 18:03 208 1 gusting 4 27.8
2018-Sep-17 17:58 216 1 gusting 6 27.8
2018-Sep-17 17:53 193 3 gusting 6 27.8
2018-Sep-17 17:48 195 2 gusting 4 28.3
2018-Sep-17 17:43 200 1 gusting 5 28.3
2018-Sep-17 17:38 211 1 gusting 5 28.3
2018-Sep-17 17:34 190 1 gusting 5 28.9
2018-Sep-17 17:24 229 2 gusting 7 28.9
2018-Sep-17 17:13 197 2 gusting 5 28.9
2018-Sep-17 17:08 152 1 gusting 5 29.4
2018-Sep-17 17:03 201 2 gusting 5 29.4
2018-Sep-17 16:58 173 2 gusting 6 29.4
2018-Sep-17 16:53 185 2 gusting 6 29.4
2018-Sep-17 16:48 200 3 gusting 6 28.9
2018-Sep-17 16:43 202 1 gusting 7 28.9
2018-Sep-17 16:38 200 4 gusting 7 28.9
2018-Sep-17 16:33 195 3 gusting 7 29.4
2018-Sep-17 16:28 198 3 gusting 6 29.4
2018-Sep-17 16:23 225 3 gusting 6 29.4
2018-Sep-17 16:18 305 1 gusting 5 29.4
2018-Sep-17 16:13 231 2 gusting 6 29.4
2018-Sep-17 16:08 213 3 gusting 6 30.0
2018-Sep-17 16:03 250 2 gusting 7 30.0
2018-Sep-17 15:58 269 4 gusting 7 30.6
2018-Sep-17 15:53 284 3 gusting 6 30.6
2018-Sep-17 15:48 297 2 gusting 6 30.6
2018-Sep-17 15:43 172 0 gusting 2 30.6
2018-Sep-17 15:39 172 0 gusting 2 30.6
2018-Sep-17 15:33 179 0 gusting 4 30.0
2018-Sep-17 15:28 204 1 gusting 4 30.0
2018-Sep-17 15:23 229 0 gusting 3 30.0
2018-Sep-17 15:18 228 1 gusting 3 30.0
2018-Sep-17 15:13 096 29.4
2018-Sep-17 15:08 096 29.4
2018-Sep-17 15:03 096 29.4
2018-Sep-17 14:58 102 0 gusting 3 29.4
2018-Sep-17 14:53 133 0 gusting 4 29.4
2018-Sep-17 14:48 184 1 gusting 3 29.4
2018-Sep-17 14:43 053 1 gusting 3 30.0
2018-Sep-17 14:38 161 0 gusting 2 30.0
2018-Sep-17 14:33 161 0 gusting 4 30.0
2018-Sep-17 14:28 163 0 gusting 4 30.0
2018-Sep-17 14:23 180 1 gusting 3 30.0
2018-Sep-17 14:18 228 1 gusting 3 30.0
2018-Sep-17 14:13 160 1 gusting 4 30.0
2018-Sep-17 14:08 160 1 gusting 4 30.0
2018-Sep-17 14:03 160 0 gusting 2 30.0
2018-Sep-17 13:58 160 1 gusting 3 29.4
2018-Sep-17 13:53 186 0 gusting 2 29.4
2018-Sep-17 13:48 036 0 gusting 3 28.9
2018-Sep-17 13:43 279 1 gusting 3 28.9
2018-Sep-17 13:38 300 1 gusting 7 28.3
2018-Sep-17 13:33 360 1 gusting 7 28.3
2018-Sep-17 13:28 296 1 gusting 4 28.3
2018-Sep-17 13:23 328 1 gusting 4 27.8
2018-Sep-17 13:18 307 1 gusting 6 27.2
2018-Sep-17 13:15 294 2 gusting 6 27.2
2018-Sep-17 12:58 255 0 gusting 6 27.2
2018-Sep-17 12:53 297 0 gusting 4 27.2
2018-Sep-17 12:48 290 1 gusting 4 27.2
2018-Sep-17 12:43 259 1 gusting 3 27.2
2018-Sep-17 12:38 258 1 gusting 3 27.2
2018-Sep-17 12:33 269 0 gusting 2 27.2
2018-Sep-17 12:28 269 27.2
2018-Sep-17 12:23 269 1 gusting 3 26.7
2018-Sep-17 12:18 272 1 gusting 3 26.7
2018-Sep-17 12:13 275 0 gusting 2 26.1
2018-Sep-17 12:08 266 0 gusting 1 26.1
2018-Sep-17 12:03 266 0 gusting 1 26.1
2018-Sep-17 11:58 266 0 gusting 1 25.6
2018-Sep-17 11:53 266 25.6
2018-Sep-17 11:48 266 25.6
2018-Sep-17 11:43 266 25.6
2018-Sep-17 11:39 266 0 gusting 2 25.6
2018-Sep-17 11:23 227 0 gusting 2 25.6
2018-Sep-17 11:18 227 0 gusting 2 25.6
2018-Sep-17 11:13 219 25.6
2018-Sep-17 11:08 223 25.6
2018-Sep-17 11:03 223 0 gusting 3 25.6
2018-Sep-17 10:58 219 2 gusting 3 25.6
2018-Sep-17 10:53 195 0 gusting 2 25.6
2018-Sep-17 10:48 195 0 gusting 3 25.0
2018-Sep-17 10:43 212 1 gusting 3 25.0
2018-Sep-17 10:38 278 1 gusting 3 25.0
2018-Sep-17 10:33 277 1 gusting 2 25.0
2018-Sep-17 10:28 276 0 gusting 2 25.0
2018-Sep-17 10:23 276 0 gusting 2 25.0
2018-Sep-17 10:18 276 1 gusting 2 25.0
2018-Sep-17 10:13 276 25.0
2018-Sep-17 10:08 275 1 gusting 6 24.4
2018-Sep-17 10:03 271 1 gusting 6 24.4
2018-Sep-17 09:58 252 24.4
2018-Sep-17 09:53 244 2 gusting 4 24.4
2018-Sep-17 09:48 277 1 gusting 5 24.4
2018-Sep-17 09:43 296 2 gusting 4 24.4
2018-Sep-17 09:38 294 1 gusting 3 24.4
2018-Sep-17 09:33 300 1 gusting 3 24.4
2018-Sep-17 09:28 311 1 gusting 3 24.4
2018-Sep-17 09:23 315 1 gusting 2 24.4
2018-Sep-17 09:18 316 24.4
2018-Sep-17 09:13 316 0 gusting 2 23.9
2018-Sep-17 09:08 316 1 gusting 3 23.9
2018-Sep-17 09:03 317 0 gusting 3 23.9
2018-Sep-17 08:58 317 0 gusting 4 23.9
2018-Sep-17 08:53 313 0 gusting 4 23.9
2018-Sep-17 08:48 311 1 gusting 4 23.3
2018-Sep-17 08:43 298 2 gusting 4 23.3
2018-Sep-17 08:38 271 0 gusting 2 23.3
2018-Sep-17 08:33 269 0 gusting 2 23.3
2018-Sep-17 08:28 268 0 gusting 2 23.3
2018-Sep-17 08:23 210 22.8
2018-Sep-17 08:18 209 22.8
2018-Sep-17 08:13 210 0 gusting 3 22.8
2018-Sep-17 08:08 209 1 gusting 3 22.8
2018-Sep-17 08:03 200 1 gusting 2 22.8
2018-Sep-17 07:58 304 0 gusting 2 22.2
2018-Sep-17 07:53 304 1 gusting 2 22.2
2018-Sep-17 07:48 309 22.2
2018-Sep-17 07:43 311 1 gusting 2 22.2
2018-Sep-17 07:38 355 21.7
2018-Sep-17 07:33 355 21.7
2018-Sep-17 07:28 355 0 gusting 1 21.7
2018-Sep-17 07:23 355 21.1
2018-Sep-17 07:18 355 21.1
2018-Sep-17 07:13 355 21.1
2018-Sep-17 07:08 355 0 gusting 1 21.1
2018-Sep-17 07:03 355 0 gusting 1 21.1
2018-Sep-17 06:58 360 20.6
2018-Sep-17 06:53 360 0 gusting 2 20.6
2018-Sep-17 06:48 360 0 gusting 2 20.6
2018-Sep-17 06:43 360 20.6
2018-Sep-17 06:38 053 20.6
2018-Sep-17 06:33 053 0 gusting 1 20.6
2018-Sep-17 06:28 053 20.6
2018-Sep-17 06:23 053 20.6
2018-Sep-17 06:18 053 20.6
2018-Sep-17 06:13 053 20.6
2018-Sep-17 06:08 053 20.6
2018-Sep-17 06:03 053 20.6
2018-Sep-17 05:58 053 0 gusting 1 20.6
2018-Sep-17 05:53 053 0 gusting 1 20.6
2018-Sep-17 05:48 053 20.6
2018-Sep-17 05:43 053 20.6
2018-Sep-17 05:38 053 20.6
2018-Sep-17 05:33 053 20.6
2018-Sep-17 05:28 053 0 gusting 3 20.6
2018-Sep-17 05:23 051 0 gusting 3 20.0
2018-Sep-17 05:18 057 0 gusting 3 20.0
2018-Sep-17 05:13 057 1 gusting 3 20.0
2018-Sep-17 05:08 053 1 gusting 3 20.0
2018-Sep-17 05:03 039 0 gusting 2 20.0
2018-Sep-17 04:58 040 0 gusting 2 20.0
2018-Sep-17 04:53 040 1 gusting 2 20.0
2018-Sep-17 04:48 036 0 gusting 2 20.0
2018-Sep-17 04:43 031 1 gusting 2 20.0
2018-Sep-17 04:38 022 20.0
2018-Sep-17 04:33 022 0 gusting 2 20.0
2018-Sep-17 04:28 022 0 gusting 2 20.0
2018-Sep-17 04:23 043 0 gusting 1 20.0
2018-Sep-17 04:18 043 20.0
2018-Sep-17 04:13 043 0 gusting 2 20.0
2018-Sep-17 04:08 046 0 gusting 1 20.0
2018-Sep-17 04:03 046 20.0
2018-Sep-17 03:58 046 0 gusting 2 20.0
2018-Sep-17 03:53 263 20.6
2018-Sep-17 03:48 263 20.6
2018-Sep-17 03:43 263 20.6
2018-Sep-17 03:38 263 20.6
2018-Sep-17 03:33 263 20.6
2018-Sep-17 03:28 263 20.6
2018-Sep-17 03:23 263 20.6
2018-Sep-17 03:18 263 20.6
2018-Sep-17 03:13 263 20.6
2018-Sep-17 03:08 263 20.6
2018-Sep-17 03:03 263 20.6
2018-Sep-17 02:58 263 20.6
2018-Sep-17 02:53 263 0 gusting 5 20.6
2018-Sep-17 02:48 263 1 gusting 5 20.6
2018-Sep-17 02:43 190 0 gusting 2 20.6
2018-Sep-17 02:38 190 0 gusting 2 20.6
2018-Sep-17 02:33 190 20.6
2018-Sep-17 02:28 190 20.6
2018-Sep-17 02:23 190 20.6
2018-Sep-17 02:18 190 0 gusting 1 20.6
2018-Sep-17 02:13 190 20.6
2018-Sep-17 02:08 190 21.1
2018-Sep-17 02:03 190 1 gusting 2 21.1
2018-Sep-17 01:58 190 0 gusting 1 21.1
2018-Sep-17 01:53 190 21.1
2018-Sep-17 01:48 190 20.6
2018-Sep-17 01:43 190 0 gusting 1 20.6
2018-Sep-17 01:38 190 0 gusting 1 20.6
2018-Sep-17 01:33 190 0 gusting 2 21.1
2018-Sep-17 01:28 190 0 gusting 2 21.1
2018-Sep-17 01:23 190 0 gusting 1 21.1
2018-Sep-17 01:18 190 21.1
2018-Sep-17 01:13 190 0 gusting 1 21.1
2018-Sep-17 01:08 190 21.1
2018-Sep-17 01:03 190 21.1
2018-Sep-17 00:58 190 21.1
2018-Sep-17 00:53 190 0 gusting 0 21.1
2018-Sep-17 00:48 190 21.1
2018-Sep-17 00:43 190 21.1
2018-Sep-17 00:38 190 21.7
2018-Sep-17 00:33 190 21.7
2018-Sep-17 00:28 190 21.7
2018-Sep-17 00:23 190 21.7
2018-Sep-17 00:18 190 0 gusting 1 21.7
2018-Sep-17 00:13 190 21.7
2018-Sep-17 00:08 190 21.7
2018-Sep-17 00:03 190 21.7